Race Results for
2010 Gravity Open DH Race at Plattekill Mtn
Roxbury, NY
(Event Information)
View By:
Downhill on 05/23/2010

Note: Ranking points are NOT upgrade points. An explanation of ranking points can be found here.


Men - Cat 3 - Junior - 15-18

 Place Points NameCity, StateTime USAC #BibTeam
1 Matthew Mastrodomenico   Florence, SC00:03:55.070 282825  307 Wachusett Brewery
2 Justice Khan   Yonkers, NY00:04:09.180 319774  304 
3 Kyle Barrett   North Salem, NY00:04:09.650 296926  312 Klank Racing
4 Travis Blackner   00:04:29.850  311 

Men - Cat 3 - Senior - 19-29

 Place Points NameCity, StateTime USAC #BibTeam
1 Andrew Slowey   Martinsville, NJ00:03:13.620 277539  303 
2 Ian McNaughton   00:03:42.910  306 Burlingame Racing
3 jason mass   Ballston Spa, NY00:03:53.420 259639  308 Elevate Cycles
4 Ryan Bolly   Agawam, MA00:03:56.420 328550  313 
DNF David Tse   Watervliet, NY 270382  301 

Men - Cat 3 - Master - 30-39

 Place Points NameCity, StateTime USAC #BibTeam
1 William Bazzono   00:03:49.450  310 Beacon Bombers
DNF Dillon Kirchner     302 

Men - Cat 3 - Master - 40-99

 Place Points NameCity, StateTime USAC #BibTeam
1 Nik Caputo   00:03:26.450  309 Beacon Bombers
2 Anthony LaRocca   Windham, NY00:05:59.390 316670  300 Table Rock Tours

Men - Cat 2 - Junior - 1-18

 Place Points NameCity, StateTime USAC #BibTeam
1 Nikolas Dudukovich   Port Matilda, PA00:02:56.050 305595  219 gamut USA/ Leatt
2 Gregory Ciralo   00:03:18.030  221 Elerate Cycles
3 Justin Wanke   Salisbury, VT00:03:24.050 267509  228 Green Mountain DH
4 Steve Neal   00:03:39.140  224 Nissan Of Keene
DNF Derek Mushro   Westport, CT 297733  227 DAH

Men - Cat 2 - Senior - 19-29

 Place Points NameCity, StateTime USAC #BibTeam
1 Steve Estabrook   00:02:52.630  226 
2 Matt Hargreanes   00:03:01.730  229 
3 Sam Holton   00:03:05.530  214 
4 Nathan Roy   Hardwick, MA00:03:05.960 286976  200 
5 Micheal Beavlieu   00:03:05.990  230 
6 steven czaplicki   Trenton, NJ00:03:09.130 302483  201 Knapp's Cycelry
7 Kip Denoyer   Medford, MA00:03:13.980 303254  216 
8 Jonathan Westland   Keene, NH00:03:14.270 193974  218 Nissan of Keene/Go Pro
9 Chris Eckerson   00:03:14.710  217 
10 Craig Zarzycki   Saratoga Springs, NY00:03:16.130 297680  209 
11 Erik Campbell   Ellington, CT00:03:16.890 316200  220 
12 Kristopher Seipp   00:03:21.800  234 Delta
13 Charles McCloskey   Howard Beach, NY00:03:30.530 251693  205 
14 Jason Boyko   00:03:32.560  232 Ian Brown
15 vincent pellicane   Morristown, NJ00:03:33.800 313524  207 Efinger Sports/Leatt
16 Brendan Silkey   Hubbardston, MA00:03:34.260 298404  210 FTW Factory racing
17 Michael Klausen   Johnstown, NY00:03:40.030 310974  236 Division 26 Clothing
18 Zack Taylor   Ballston Spa, NY00:03:45.600 296856  235 Blue Sky Bikes
19 anthony coluccio   Hamilton, NJ00:03:46.640 316684  222 Knapps
20 Chancey Phillips   Canajoharie, NY00:04:11.900 286032  231 
DNF Kurt Houben   Bainbridge, NY 316132  203 

Men - Cat 2 - Master - 30-39

 Place Points NameCity, StateTime USAC #BibTeam
1 Luke Wenschhof   Fairport, NY00:03:03.110 298954  208 
2 Andy Haskell   Jaffrey, NH00:03:19.170 283641  215 661/Spy/The Sock Guy/Magura/Sunline
3 Chad Haniak   00:03:21.900  202 
4 William Downes   Astoria, NY00:05:29.840 213794  233 www.brooklynbikes.com
DNF Gino Groft   Hanover, PA 150875  223 

Men - Cat 2 - Master - 40-99

 Place Points NameCity, StateTime USAC #BibTeam
1 Frank Endreson    Haledon, NJ00:03:23.700 290497  211 TTC
2 James MacNaughton   Albany, NY00:03:34.010 237322  204 Elevate Cycles/FTW
3 Bill Burlingame   Feura Bush, NY00:03:53.120 5548  213 CK Cycles

Men - Cat 1 - Junior - 1-18

 Place Points NameCity, StateTime USAC #BibTeam
1 Bryson Martin   Castaic, CA00:02:59.060 295629  139 Young Guns/Marzocchi
2 Nate Furbee   Los Osos, CA00:03:06.580 215754  109 Fox/Baywood/WT
3 Samuel Pensler   Chevy Chase, MD00:03:07.630 262060  164 Grom Racing
4 Trevor Trinkino   Evergreen, CO00:03:08.460 242852  138 Yeti RPM
5 Alexandre Couture   Conway, NH00:03:11.970 266641  105 Giant Bicycles
6 Austin Benge   Angwin, CA00:03:12.220 280063  102 Backbone Racing
7 Logan Mulally   Reading, PA00:03:12.750 247832  135 Troy Lee Designs
8 Alec Toney   Basalt, CO00:03:14.440 278324  120 Team Geronimo/Banshee Bikes
9 Teddy Benge   Carbondale, CO00:03:19.560 227700  101 Team Geronimo/Banshee Bikes
10 Andrew Schumer   Middlebury, VT3:22.23 246020  170 Green Mountain DH
11 David Milkiewicz   Troy, NY00:03:24.600 280668  173 Gravity Project
12 Alex Bowdish   Weybridge, VT00:03:24.700 231814  137 Green Mountain DH
13 David Renne   Littleton, CO00:03:25.810 257929  118 Mojo Wheels
14 Max Hautaniemi   Rochester, NY00:03:26.990 272975  150 Gravity Project
15 Peter McNulty   Walpole, MA00:03:27.030 244558  114 
16 Hunter Budd   Boone, NC00:03:30.770 268947  148 Sinister United Freeride
17 Cody Wilkins   Lew Beach, NY00:03:31.990 266472  125 Project Gravity/Overlook
18 Ray Syron   Rockport, MA00:03:34.020 282084  133 Sinister United Freeride
19 Anthony Marino   Newbury Park00:03:59.060 233908  111 Marzzochi
DNF Robert Lewis   Pittsburgh, PADNS 296992  177 7 Spring/Transition

Men - Cat 1 - 19-29

 Place Points NameCity, StateTime USAC #BibTeam
1 Anthony Coneski   Beacon , NY00:03:03.960 194171  142 Beacon Bikes/Beacon Cycles/Nema
2 Troy D'Elia   Moreno Valley, CA00:03:05.160 224206  106 Foes Racing/Nema
3 Ryan Gardner   Marlboro, NY00:03:13.490 295562  143 Beacon Bomber/Beacon Cycles
4 Peter John Mihalick   Westport, CT00:03:13.880 249132  140 Giant/HBG/Diablo
5 matt dahlmeyer   East Haven, CT00:03:14.160 249603  175 Action Sports/BSN/Smith
6 Mitch Chubey   00:03:15.550  181 Morpheus Cycles
7 Sam Chipkin   Troy, NH00:03:15.790 298988  151 Drummer Racing
8 Nik Patalano   Reading, MA00:03:17.160 201900  171 Spooky Bikes
9 Kyle Karpuska   Old Lyme, CT00:03:17.760 269076  159 Team VonCooper/GT
10 Eric Bercume   Banner Elk, NC00:03:18.960 280672  156 
11 John (Jack) Williams   Stowe Vt, VT00:03:19.880 164519  155 Drummer Racing/CrankBros/Andy's GCA
12 Michael Stock   Cromwell, CT00:03:23.640 181463  176 Ghostship Clothing
13 Daniel Phillips   Bridgeport, CT00:03:24.190 227999  117 Radical Racing
14 Kyle Kimble   Bartonsville, PA00:03:25.880 265261  112 
15 Max Syron   Rockport, MA00:03:25.980 282083  132 Sinster/United Freeride
16 Chris Patton   Westport, CT00:03:26.790 252550  134 Gravity Project
17 David Gambardella   East Haven, CT00:03:32.470 284793  108 
18 Tylor Bowes   Spencer, MA00:03:33.860 279816  179 Old Soul Speed Shop
19 Allen Bercume   Spencer, MA00:03:33.930 296540  180 Old Soul Speed Shop
20 Halston Mendes   Newington, CT00:03:35.730 265091  115 Team Action Sports
21 Eric Allocco   Hamden, CT00:03:37.510 262124  100 Intense Grass Roots
22 Jacob Roy   Hardwick, MA00:03:40.570 282826  157 
23 Stephen Ido   Wernersville, PA00:03:41.930 175933  149 Delta House Racing/Nema/Utopia
24 Chris Bierl   East Aurora, NY00:03:47.650 248913  158 Delta House Racing
25 Kevin Cockerham   Burlington, NJ00:03:48.400 213780  168 Sinical Racing/sonnbike.com
26 Roderick Haske   Downingtown, PA00:03:57.610 296872  126 Lowriders
27 Christopher Hoey   Bellmore, NY00:04:01.310 168591  129 D2C Media
28 Jonathan Gillespie   Audubon, PA00:04:06.650 246537  110 Gravity Project
DNF Chris Brown   Manchester, NH 174623  104 Hot Fire Racing
DNF Jason Nixon   Lake Orion, MI 194468  122 Sicklines

Men - Cat 1 - Master - 30-39

 Place Points NameCity, StateTime USAC #BibTeam
1 Neil Snyder   Berne, NY00:03:12.950 298444  162 Down Tube Cycles/VanCooper
2 David Townsend   Queensbury, NY00:03:22.960 138047  124 Gravity Project
3 Shawnee McGovern   Boulder, CO00:03:24.330 83560  145 Orbit/Smac
4 Donald Roberts   Sanford, ME00:03:25.950 184818  127 FTW Factory Racing
5 Kyle Kutzler   Saylorsburg, PA00:03:28.570 162445  113 KSquare Racing
6 Hernane Alves   Newark, NJ00:03:33.200 283245  160 Team Brazil
7 Michael Mullen   Hudson Falls, NY00:03:35.350 163398  136 Elevate Cycles/Livewire Energy
8 Casey Coull   Douglassville, PA00:03:35.610 234632  172 Lowriders
9 Lane Boertmann   Toms River, NJ00:03:41.140 299762  174 Beachwood Bikes
10 Tim Frederick   Middletown, CT00:03:49.540 290658  107 Team Action Sports
11 Neal Demaio   Ulster Park, NY00:04:12.570 211044  161 Delta House
12 Jon Siverling   Clifton Park, NY00:04:20.190 213798  147 Delta HOuse/Leatt
13 Chad Lawrence   Lake Katrine, NY00:04:38.940 20548  144 
DNF Sean Tarricone   Belmar, NJ 173561  116 Crash Or Win Racing
DNF Jason Halverson   Brookfield, CT 226996  178 GT Bicycles

Men - Cat 1 - Master - 40-99

 Place Points NameCity, StateTime USAC #BibTeam
1 Heath Buedeker   00:03:24.630  153 Sierra Nevada Brewing
2 Jacob Dallegro   Happon Township, NJ00:03:29.700 154787  167 Sinical Racing
3 Ernest Reale   Haines Falls, NY00:03:38.050 29308  152 Plattekill
4 Steven Battaglini   Ballston Spa, NY00:03:48.180 181070  165 Elevate/Chumba
5 Douglass Wilson   Keene, NH00:03:51.530 280148  166 Drummer Racing
6 Stefan Daney   Stafford, VA00:03:53.780 282817  131 Inspired Athletes
7 Paul La Barbera   Freehold, NY00:04:01.220 261964  169 
8 John Pallotto   Cheshire, CT00:04:03.120 27111  146 Morewood/Royal Racing
9 George Ulmer   Troy, NY00:04:04.180 197486  123 
10 Ted Briggs   Lebanon, PA00:04:35.360 121011  103 JB Mountain Bikes
11 Paul Makowski   Rochester, NY00:06:24.220 296852  163 
DNF Todd Plessel   Raleigh, NC 184558  121 
DNF Richard Rude   Redding, CT 189124  119 Cycle Center Racing Team

Men - Pro

 Place Points NameCity, StateTime USAC #BibTeam
1 Andrew Neethling   2:43.48   Trek World Racing
2 Bryn Atkinson   2:44.47   Transition Racing
3 Justin Leov   2:45.20   Trek World Racing
4 Duncan Riffle   Santa Barbara, CA2:47.44 146687   Giant Factory Team
5 Kieran Bennett   2:47.99   DRD/Tomac
6 Logan Binggeli   Saint George, UT2:48.91 213148   KHS Bicycles
7 Jared Rando   2:49.28   Giant
8 John Swanguen   San Diego2:49.79 175203   ODI/X-Fusion/Intense
9 Michael Sylvestri   Truckee2:49.83 288977   Specialized All Ride
10 Jurgen Beneke   Kingston, NY2:51.35 154993   OldWorldPlaster.net
11 Bradley Benedict   Morgan Hill, CA2:51.76 198527   Specialized
12 Luke Strobel   Issaquah, WA2:51.95 181052   MS/Evil
13 Ryan Condrashoff   Larkspur, CA2:52.76 197784   ODI/X-Fusion/Intense
14 Kevin Aiello   Rancho Santa Margarita, CA2:52.97 245409   
15 Chris Heath   Denver, CO2:53.11 177708   KHS
15 Graeme Pitts   Nevada City, CA2:53.11 232939   Geronimo/Banshee
17 Richard Rude JR   Redding, CT2:53.77 209311   Specialized Allride
18 Lars Sternberg   Ferndale, WA2:53.88 185351   Transition Racing
19 Geritt Beytagh   Fletcher, NC2:54.28 188092   Morewood Bikes USA
20 Ben Furbee   Los Osos, CA2:54.51 215234   Fox/Baywood/WT
21 Eliot Jackson   Westlake Village, CA2:55.19 297858   
22 Jason Memmelaar   Chester, NY2:56.15 161139   Giant/HGB/Smith/5ten
23 Ethan Quehl   Loganville, GA2:56.95 175816   Gravity East
24 Sean McClendon   Pine Valley, CA2:57.14 159018   ODI/X-Fusion/Intense
25 David KlaassenVanOorschot   Riverside, CA2:57.96 154642   ODI/Intense/Nema
26 Brian Buell   Jamestown, CO2:59.06 218052   Geronimo/Banshee
27 Lear Miller   2:59.40   Demon Dirt
28 Naish Ulmer   Hood River, OR2:59.94 175253   KHS/Spy Optics/Dark
29 Blake Carney   Camarillo, CA3:00.59 200586   KHS/Dean Optics
30 Brad Oien   Fountain Valley, CA3:00.65 199509   ODI/X-Fusion/Intense
31 George Ryan   Vernon, NJ3:00.88 136378   Jamis/Pro-Tec/Vans
32 Will Collins   West Hartford, CT3:01.02 231811   Spooky Bikes
33 Alejandro Ortiz   3:01.10   Morpheous Cycles
34 Timothy Price   Great Falls, VA3:01.25 194155   Grom Racing
35 Trevyn Newpher   Steamboat Springs, CO3:01.37 189058   Snowshoe Bike Park/S
36 Robin Baloochi   Eugene, OR3:01.64 144813   DRD Tomac
37 Benjamin Moody   Rumney, NH3:03.00 24837   POC Helemts/Trek
38 John Keep   Ramona, CA3:03.49 251434   DRD Tomac
39 Chris Higgerson   Deansboro, NY3:04.96 208966   Giant/HBG
40 Luke Snyder   Cohoes, NY3:06.35 266362   DownTube/VonCooper
41 Christopher Mari   Somers Ny3:06.88 249170   Zeal Optics/Champion
42 Erik Hudson   Warwick, NY3:07.84 176535   Brooklyn Machine Wor
43 Amado Stachenfeld   Berkeley, CA3:08.73 209079   amadomtb.com
44 Brian Yannuzzi   Coatesville, PA3:08.93 212921   Loweriders Derailed
45 Zachary Faulkner   Spofford, NH3:09.06 231815   Drummer Racing/Evil
46 Oliver Levick   Troy, NH3:09.19 195365   Drummer Racing
47 Logan James   Durango, CO3:09.67 215000   Team Krunk Shox
48 Blair Reed   Boulder, CO3:09.81 201148   
49 Tim White   Colchester, VT3:11.19 201948   VonCooper/GT/HBG
50 Matty Komar   Rumson, NJ3:12.51 279411   
51 Leif Lorenzen   Croton On Hudson, NY3:14.17 168141   
52 Justin Beers   Syracuse, NY3:16.28 247799   
53 Benedict Treglia   York, PA3:16.42 111141   Foes Racing/661/Sunl
54 Evan Mallory   Hensonville, NY3:17.05 267331   Windham Mountain Out
55 Alex Moschitti   Fairless Hills, PA3:17.84 297556   Team Giant/HBG
56 Erik Gosselin   Bedford, NH3:18.45 257554   Gravity Project
57 Danial Ferreira   Milford, CT3:22.42 98389   Action Sports/Smith/
58 David Haas   3:22.74   Sam Adams
59 Michael Buell   Nederland, CO3:46.59 202502   Team Geronimal/Bansh
60 Heikki Hall   Durango, CO5:14.00 117452   e-thirteen/commenc
DNF Quinton Spaulding   Henderson, NVDNS 165835   KHS Bicycles
DNF Geoffrey Ulmer   Troy, NYDNS 197485   Gravity Project
DNF Adam Morse   Burlington, VTDNF 216324   Voncooper/GT/HBG

Women - Cat 3 - Junior - 1-18

 Place Points NameCity, StateTime USAC #BibTeam
1 Olivia Allison   00:05:05.520  305 United Freeride/Plattekill

Women - Cat 2

 Place Points NameCity, StateTime USAC #BibTeam
1 Taylor Allison   Woodstock00:03:31.970 269964  212 United Freeride/Plattekill
2 Kim Murrell   00:03:40.710  206 Larry Hill Ford/Scott's Bikes
3 Elixandria Porru   New Rochelle, NY00:04:40.570 317126  225 Go Pro/O'Neal

Women - Cat 1

 Place Points NameCity, StateTime USAC #BibTeam
1 Lauren Daney   Stafford, VA00:03:59.560 282816  130 
2 Becky Gardner   Marlboro, NY00:04:04.840 298049  141 Beacon Cycles/Nema
3 Rebecca Bagley   Sanford, ME00:04:22.900 283098  128 FTW Factory RAcing/661/Azonic/Ernies/SDG
4 Felicia Kearsley   Haines Falls, NY00:05:01.420 300218  154 Windham Mtn Outfitters

Women - Pro

 Place Points NameCity, StateTime USAC #BibTeam
1 Tracy Mosley   3:00.49   Trek World Racing
2 Melissa Buhl   Chandler, AZ3:05.47 75536   KHS
3 Jill Kintner   Seattle, WA3:09.14 186217   Transition Racing
4 Darian Harvey   Durango, CO3:29.93 195177   Vixen Racing
5 Rae Gandolf   Zanesville, OH3:45.12 272840   Team Sierra Nevada

Report missing or incorrect license numbers

Volkswagen
USACDFSierra NevadaOSMOCUOREShimanoBonk BreakerSpy
UCI USA Cycling is the official governing body for all disciplines of competitive cycling in the United States. The 501c3, membership-based organization aims both to achieve sustained success in international cycling competition and to grow competitive cycling in America while delivering an exceptional customer experience.
View Children's Online Privacy Protection Policy
US Olympic Committee